Miscellaneous Local Product
Issued by NWS Hastings, NE

Home | Current Version | Previous Version | Graphics & Text | Print | Product List | Glossary On
Versions: 1 2 3 4 5 6 7 8 9 10 11 12 13 14 15 16 17 18 19 20 21 22 23 24 25 26 27 28 29 30 31 32 33 34 35 36 37 38 39 40 41 42 43 44 45 46 47 48 49 50
504
AXUS43 KGID 121302
MISGRI

GID CWA HOURLY WEATHER ROUNDUP
NATIONAL WEATHER SERVICE HASTINGS NE
700 AM CST FRI FEB 12 2016

NOTE: "FAIR" INDICATES FEW OR NO CLOUDS BELOW 12,000 FEET WITH NO
SIGNIFICANT WEATHER AND/OR OBSTRUCTIONS TO VISIBILITY.

...SOUTH CENTRAL NEBRASKA...

CITY           SKY/WX    TMP DP  RH WIND       PRES   REMARKS
GRAND ISLAND   CLOUDY    27  23  85 N12       30.37R WCI  17
HASTINGS       CLOUDY    28  24  85 N10       30.35R WCI  19
KEARNEY        CLOUDY    30  27  86 N9        30.35R WCI  22
ORD            CLOUDY    26  24  92 NW5       30.34R WCI  20
YORK           CLOUDY    27  25  93 N17       30.36R WCI  14
AURORA         CLOUDY    27  25  89 N16       30.36R WCI  15
LEXINGTON      CLOUDY    33  29  88 N8        30.34R WCI  25
HOLDREGE       CLOUDY    31  29  91 NE9       30.32R WCI  23
HEBRON         CLOUDY    28  25  87 N9        30.37R WCI  19

...NEBRASKA PANHANDLE...

CITY           SKY/WX    TMP DP  RH WIND       PRES   REMARKS
CHADRON        CLOUDY    29  27  92 N3        30.33R
ALLIANCE       CLOUDY    24  21  88 W9        30.27R WCI  14
SCOTTSBLUFF    CLOUDY    31  27  85 NW5       30.29R WCI  26
SIDNEY         CLOUDY    31  27  85 NW10      30.28R WCI  22

...WESTERN AND NORTH CENTRAL NEBRASKA...

CITY           SKY/WX    TMP DP  RH WIND       PRES   REMARKS
VALENTINE      CLOUDY    27  25  92 N15       30.35R FOG     WCI  15
AINSWORTH      CLOUDY    29  28  96 N15       30.34R FOG     WCI  17
ONEILL         CLOUDY    26  25  94 N12       30.35R FOG     WCI  16
BROKEN BOW     CLOUDY    31  27  85 N8        30.33R WCI  23
IMPERIAL       CLOUDY    23  21  92 SE6       30.30R WCI  16
NORTH PLATTE   CLOUDY    27  24  89 W3        30.33R
MCCOOK         CLOUDY    25  23  92 W8        30.33R WCI  16

...EASTERN NEBRASKA...

CITY           SKY/WX    TMP DP  RH WIND       PRES   REMARKS
NORFOLK        CLOUDY    23  20  88 N12       30.36R WCI  12
SO SIOUX CITY  CLOUDY    21  16  81 NW12      30.38R WCI   9
TEKAMAH        CLOUDY    20  16  84 N10       30.39R WCI   9
COLUMBUS       CLOUDY    25  14  63 NW9       30.37R WCI  15
ALBION         CLOUDY    25  20  81 N7        30.36R WCI  17
OMAHA EPPLEY   CLOUDY    20  17  88 N9        30.37R WCI   9
OFFUTT AFB     CLOUDY    21  16  81 N10       30.36R WCI  10
MILLARD        CLOUDY    22  17  79 NW3       30.37R
LINCOLN        PTCLDY    23  18  81 N12       30.39R WCI  12
NEBRASKA CITY  MOCLDY    24  20  86 N16       30.35R WCI  10
BEATRICE       CLOUDY    28  24  86 N13       30.37R WCI  17
FALLS CITY     CLOUDY    29  22  75 N13       30.34R WCI  19

...NORTHERN KANSAS...

CITY           SKY/WX    TMP DP  RH WIND       PRES   REMARKS
GOODLAND       CLOUDY    30  25  81 W7        30.30R WCI  23
HILL CITY      CLEAR     29  27  92 NE3       30.35R
NORTON         SUNNY     27  21  80 CALM      30.33
SMITH CENTER   CLOUDY    28  27  93 CALM      30.36R
BELOIT         CLOUDY    28  27  93 N10       30.37R WCI  19
HAYS           CLEAR     28  18  64 N6        30.34S WCI  22
RUSSELL        CLEAR     28  26  92 N7        30.34R WCI  21
CONCORDIA      CLOUDY    29  24  82 N9        30.35R WCI  20
SALINA         CLEAR     28  23  81 N9        30.36R WCI  19
TOPEKA         CLOUDY    30  23  75 N7        30.33R WCI  23



USA.gov is the U.S. government's official web portal to all federal, state and local government web resources and services.